XUA2006 SLLP-SCFA

Flight info

Callsign XUA2006
Flight time 1h 9m
Altitude 36000
Route DEVUR UM664 VAGUR UT291 ERISO/N0448F350 UT291 LOBAG UQ803 ENLUS ENLUS5A
Aircraft A320/M-SDE3FGHIRWY/LB1

Departure

Time 2026-04-23 20:12
Airport El Alto International Airport (SLLP)

Arrival

Time 2026-04-23 21:21
Airport Andrés Sabella Gálvez International Airport (SCFA)
Time Latitude Longitude Altitude Speed Heading
2026-04-23 19:49 -16.51006 -68.17616 13335 ft 0 kts 27°
2026-04-23 20:04 -16.51007 -68.17616 13336 ft 1 kts 27°
2026-04-23 20:05 -16.51018 -68.17622 13336 ft 2 kts 24°
2026-04-23 20:05 -16.51034 -68.17629 13336 ft 3 kts 43°
2026-04-23 20:05 -16.51044 -68.17645 13336 ft 3 kts 86°
2026-04-23 20:05 -16.51044 -68.17655 13336 ft 0 kts 104°
2026-04-23 20:08 -16.51049 -68.17639 13336 ft 5 kts 111°
2026-04-23 20:08 -16.51091 -68.17591 13333 ft 13 kts 136°
2026-04-23 20:08 -16.51160 -68.17515 13331 ft 15 kts 132°
2026-04-23 20:08 -16.51227 -68.17432 13329 ft 15 kts 130°
2026-04-23 20:09 -16.51299 -68.17369 13327 ft 0 kts 161°
2026-04-23 20:09 -16.51308 -68.17367 13325 ft 2 kts 165°
2026-04-23 20:09 -16.51317 -68.17365 13325 ft 0 kts 172°
2026-04-23 20:09 -16.51329 -68.17364 13326 ft 5 kts 173°
2026-04-23 20:10 -16.51378 -68.17369 13325 ft 7 kts 203°
2026-04-23 20:10 -16.51388 -68.17402 13325 ft 5 kts 262°
2026-04-23 20:10 -16.51388 -68.17451 13324 ft 8 kts 272°
2026-04-23 20:10 -16.51385 -68.17580 13325 ft 41 kts 271°
2026-04-23 20:11 -16.51367 -68.18111 13312 ft 103 kts 272°
2026-04-23 20:11 -16.51336 -68.19046 13285 ft 153 kts 272°
2026-04-23 20:11 -16.51280 -68.20303 13256 ft 191 kts 272°
2026-04-23 20:11 -16.51245 -68.21716 13717 ft 197 kts 271°
2026-04-23 20:12 -16.51249 -68.23153 14316 ft 199 kts 270°
2026-04-23 20:12 -16.51292 -68.24582 14937 ft 194 kts 268°
2026-04-23 20:12 -16.51440 -68.25920 15413 ft 183 kts 251°
2026-04-23 20:12 -16.52044 -68.27096 15559 ft 189 kts 237°
2026-04-23 20:13 -16.52821 -68.28210 15774 ft 191 kts 235°
2026-04-23 20:13 -16.53613 -68.29327 15995 ft 192 kts 236°
2026-04-23 20:13 -16.54391 -68.30466 16231 ft 193 kts 237°
2026-04-23 20:13 -16.55150 -68.31627 16482 ft 194 kts 238°
2026-04-23 20:14 -16.55895 -68.32802 16732 ft 195 kts 238°
2026-04-23 20:14 -16.56643 -68.34009 16864 ft 201 kts 239°
2026-04-23 20:14 -16.57411 -68.35262 17005 ft 208 kts 238°
2026-04-23 20:14 -16.58197 -68.36562 17133 ft 216 kts 239°
2026-04-23 20:15 -16.59004 -68.37910 17262 ft 222 kts 239°
2026-04-23 20:15 -16.59834 -68.39302 17391 ft 229 kts 239°
2026-04-23 20:15 -16.60683 -68.40737 17541 ft 237 kts 239°
2026-04-23 20:15 -16.61564 -68.42232 17650 ft 247 kts 240°
2026-04-23 20:16 -16.62483 -68.43796 17755 ft 260 kts 239°
2026-04-23 20:16 -16.63445 -68.45431 17981 ft 268 kts 239°
2026-04-23 20:16 -16.64435 -68.47109 18310 ft 275 kts 239°
2026-04-23 20:16 -16.65443 -68.48823 18689 ft 280 kts 238°
2026-04-23 20:17 -16.66455 -68.50537 19179 ft 279 kts 240°
2026-04-23 20:17 -16.67470 -68.52257 19675 ft 279 kts 239°
2026-04-23 20:17 -16.68671 -68.53843 20068 ft 282 kts 222°
2026-04-23 20:17 -16.70174 -68.55220 20210 ft 294 kts 221°
2026-04-23 20:18 -16.71752 -68.56637 20345 ft 305 kts 221°
2026-04-23 20:18 -16.73392 -68.58105 20483 ft 316 kts 221°
2026-04-23 20:18 -16.75079 -68.59610 20735 ft 323 kts 221°
2026-04-23 20:18 -16.76820 -68.61165 20867 ft 336 kts 221°
2026-04-23 20:19 -16.78634 -68.62790 20999 ft 350 kts 221°
2026-04-23 20:19 -16.80516 -68.64476 21126 ft 363 kts 221°
2026-04-23 20:19 -16.82462 -68.66223 21255 ft 376 kts 221°
2026-04-23 20:19 -16.84476 -68.68036 21383 ft 388 kts 221°
2026-04-23 20:20 -16.86550 -68.69909 21512 ft 399 kts 221°
2026-04-23 20:20 -16.88678 -68.71832 21656 ft 410 kts 221°
2026-04-23 20:20 -16.90852 -68.73797 21966 ft 415 kts 221°
2026-04-23 20:20 -16.93046 -68.75779 22352 ft 419 kts 221°
2026-04-23 20:21 -16.95259 -68.77776 22732 ft 421 kts 221°
2026-04-23 20:21 -16.97484 -68.79784 23108 ft 424 kts 221°
2026-04-23 20:21 -16.99722 -68.81803 23472 ft 426 kts 221°
2026-04-23 20:21 -17.01971 -68.83834 23827 ft 428 kts 221°
2026-04-23 20:22 -17.04227 -68.85876 24169 ft 430 kts 221°
2026-04-23 20:22 -17.06496 -68.87925 24499 ft 432 kts 221°
2026-04-23 20:22 -17.08773 -68.89977 24826 ft 434 kts 221°
2026-04-23 20:22 -17.11069 -68.92046 25141 ft 436 kts 221°
2026-04-23 20:23 -17.13365 -68.94120 25467 ft 437 kts 221°
2026-04-23 20:23 -17.15666 -68.96202 25767 ft 437 kts 221°
2026-04-23 20:23 -17.17963 -68.98310 26042 ft 441 kts 223°
2026-04-23 20:23 -17.20184 -69.00526 26326 ft 442 kts 225°
2026-04-23 20:24 -17.22328 -69.02843 26610 ft 444 kts 227°
2026-04-23 20:24 -17.24418 -69.05221 26896 ft 445 kts 228°
2026-04-23 20:24 -17.26493 -69.07635 27161 ft 446 kts 228°
2026-04-23 20:24 -17.28574 -69.10052 27417 ft 448 kts 228°
2026-04-23 20:25 -17.30683 -69.12470 27675 ft 450 kts 227°
2026-04-23 20:25 -17.32808 -69.14877 27932 ft 452 kts 227°
2026-04-23 20:25 -17.34956 -69.17288 28193 ft 453 kts 227°
2026-04-23 20:25 -17.37085 -69.19669 28443 ft 455 kts 227°
2026-04-23 20:26 -17.39275 -69.22120 28711 ft 457 kts 227°
2026-04-23 20:26 -17.41456 -69.24561 28969 ft 459 kts 227°
2026-04-23 20:26 -17.43635 -69.26996 29206 ft 458 kts 227°
2026-04-23 20:26 -17.45812 -69.29433 29412 ft 459 kts 227°
2026-04-23 20:27 -17.47994 -69.31877 29610 ft 460 kts 227°
2026-04-23 20:27 -17.50182 -69.34334 29818 ft 461 kts 227°
2026-04-23 20:27 -17.52375 -69.36796 30014 ft 462 kts 227°
2026-04-23 20:27 -17.54577 -69.39263 30191 ft 464 kts 227°
2026-04-23 20:28 -17.56806 -69.41718 30394 ft 464 kts 224°
2026-04-23 20:28 -17.59259 -69.43844 30635 ft 464 kts 215°
2026-04-23 20:28 -17.62048 -69.45562 30870 ft 465 kts 206°
2026-04-23 20:28 -17.65013 -69.46923 31087 ft 465 kts 204°
2026-04-23 20:29 -17.67989 -69.48265 31304 ft 466 kts 204°
2026-04-23 20:29 -17.70966 -69.49611 31532 ft 466 kts 204°
2026-04-23 20:29 -17.73938 -69.50957 31761 ft 466 kts 204°
2026-04-23 20:29 -17.76921 -69.52312 31988 ft 467 kts 204°
2026-04-23 20:30 -17.79902 -69.53665 32209 ft 467 kts 204°
2026-04-23 20:30 -17.85860 -69.56382 32642 ft 467 kts 205°
2026-04-23 20:30 -17.88844 -69.57742 32856 ft 468 kts 205°
2026-04-23 20:31 -17.91832 -69.59101 33066 ft 468 kts 205°
2026-04-23 20:31 -17.94828 -69.60462 33289 ft 469 kts 204°
2026-04-23 20:31 -17.97830 -69.61827 33523 ft 470 kts 205°
2026-04-23 20:31 -18.00829 -69.63190 33757 ft 470 kts 205°
2026-04-23 20:32 -18.03833 -69.64556 33990 ft 469 kts 205°
2026-04-23 20:32 -18.06826 -69.65918 34222 ft 469 kts 205°
2026-04-23 20:32 -18.09830 -69.67288 34423 ft 470 kts 205°
2026-04-23 20:32 -18.12823 -69.68655 34640 ft 470 kts 205°
2026-04-23 20:33 -18.15819 -69.70026 34857 ft 470 kts 206°
2026-04-23 20:33 -18.18814 -69.71399 35020 ft 470 kts 206°
2026-04-23 20:33 -18.24819 -69.74145 35051 ft 471 kts 206°
2026-04-23 20:34 -18.30827 -69.76886 35053 ft 471 kts 205°
2026-04-23 20:34 -18.36790 -69.79610 35059 ft 470 kts 205°
2026-04-23 20:35 -18.42877 -69.82162 35054 ft 471 kts 202°
2026-04-23 20:35 -18.49092 -69.84498 35053 ft 471 kts 201°
2026-04-23 20:36 -18.55236 -69.86807 35054 ft 471 kts 202°
2026-04-23 20:36 -18.61387 -69.89200 35057 ft 471 kts 202°
2026-04-23 20:37 -18.67520 -69.91618 35060 ft 471 kts 202°
2026-04-23 20:37 -18.73657 -69.94035 35054 ft 471 kts 203°
2026-04-23 20:38 -18.79800 -69.96447 35056 ft 471 kts 203°
2026-04-23 20:38 -18.85935 -69.98849 35057 ft 470 kts 203°
2026-04-23 20:39 -18.92070 -70.01253 35062 ft 470 kts 203°
2026-04-23 20:39 -18.98197 -70.03653 35063 ft 470 kts 203°
2026-04-23 20:40 -19.04333 -70.06067 35063 ft 470 kts 203°
2026-04-23 20:40 -19.10464 -70.08484 35053 ft 471 kts 203°
2026-04-23 20:41 -19.16577 -70.10889 35050 ft 472 kts 203°
2026-04-23 20:41 -19.22730 -70.13311 35051 ft 472 kts 203°
2026-04-23 20:42 -19.28893 -70.15744 35057 ft 472 kts 203°
2026-04-23 20:42 -19.35056 -70.18174 35058 ft 473 kts 203°
2026-04-23 20:43 -19.41257 -70.20500 35055 ft 475 kts 197°
2026-04-23 20:43 -19.47845 -70.21264 35057 ft 480 kts 182°
2026-04-23 20:44 -19.54521 -70.21279 35049 ft 480 kts 182°
2026-04-23 20:44 -19.60072 -70.21308 35049 ft 478 kts 183°
2026-04-23 20:45 -19.63350 -70.21323 35052 ft 463 kts 183°
2026-04-23 20:45 -19.66514 -70.21334 35051 ft 447 kts 183°
2026-04-23 20:45 -19.69581 -70.21341 35053 ft 436 kts 183°
2026-04-23 20:45 -19.72602 -70.21351 35045 ft 433 kts 183°
2026-04-23 20:46 -19.78618 -70.21380 35045 ft 432 kts 183°
2026-04-23 20:46 -19.84624 -70.21404 35047 ft 432 kts 183°
2026-04-23 20:47 -19.90635 -70.21423 35044 ft 431 kts 183°
2026-04-23 20:47 -19.96596 -70.21438 35045 ft 431 kts 183°
2026-04-23 20:48 -20.02638 -70.21455 35035 ft 431 kts 183°
2026-04-23 20:48 -20.08594 -70.21477 35037 ft 431 kts 183°
2026-04-23 20:49 -20.14598 -70.21501 35035 ft 431 kts 183°
2026-04-23 20:49 -20.20616 -70.21524 35035 ft 432 kts 183°
2026-04-23 20:50 -20.26606 -70.21539 35035 ft 429 kts 183°
2026-04-23 20:50 -20.32577 -70.21562 35035 ft 429 kts 184°
2026-04-23 20:51 -20.38555 -70.21586 35027 ft 429 kts 183°
2026-04-23 20:51 -20.44529 -70.21612 35025 ft 429 kts 184°
2026-04-23 20:52 -20.50497 -70.21632 35025 ft 429 kts 184°
2026-04-23 20:52 -20.56431 -70.21651 35027 ft 429 kts 184°
2026-04-23 20:53 -20.62400 -70.21670 35027 ft 429 kts 184°
2026-04-23 20:53 -20.68374 -70.21691 35027 ft 429 kts 184°
2026-04-23 20:54 -20.74350 -70.21713 35027 ft 429 kts 184°
2026-04-23 20:54 -20.80324 -70.21737 35027 ft 429 kts 184°
2026-04-23 20:55 -20.86297 -70.21760 35026 ft 429 kts 184°
2026-04-23 20:55 -20.92278 -70.21780 35026 ft 430 kts 185°
2026-04-23 20:56 -20.98262 -70.21800 35026 ft 429 kts 185°
2026-04-23 20:56 -21.04235 -70.21823 35026 ft 429 kts 185°
2026-04-23 20:57 -21.10210 -70.21840 35027 ft 430 kts 185°
2026-04-23 20:57 -21.16157 -70.21857 35026 ft 430 kts 185°
2026-04-23 20:58 -21.22136 -70.21877 35027 ft 430 kts 186°
2026-04-23 20:58 -21.28111 -70.21903 35027 ft 430 kts 186°
2026-04-23 20:59 -21.34093 -70.21927 35034 ft 430 kts 186°
2026-04-23 20:59 -21.40080 -70.21941 35034 ft 430 kts 186°
2026-04-23 21:00 -21.46068 -70.21961 35034 ft 430 kts 186°
2026-04-23 21:00 -21.52054 -70.21980 35035 ft 430 kts 186°
2026-04-23 21:01 -21.58039 -70.21997 35034 ft 430 kts 186°
2026-04-23 21:01 -21.64024 -70.22025 35027 ft 430 kts 186°
2026-04-23 21:02 -21.67028 -70.22040 34689 ft 429 kts 186°
2026-04-23 21:02 -21.70012 -70.22052 34237 ft 429 kts 186°
2026-04-23 21:02 -21.72995 -70.22064 33660 ft 429 kts 186°
2026-04-23 21:02 -21.75982 -70.22073 33102 ft 429 kts 186°
2026-04-23 21:03 -21.78962 -70.22079 32526 ft 428 kts 186°
2026-04-23 21:03 -21.81943 -70.22085 31956 ft 428 kts 186°
2026-04-23 21:03 -21.84877 -70.22090 31395 ft 427 kts 186°
2026-04-23 21:03 -21.87844 -70.22102 30825 ft 425 kts 187°
2026-04-23 21:04 -21.90763 -70.22325 30267 ft 418 kts 194°
2026-04-23 21:04 -21.93630 -70.22776 29712 ft 415 kts 194°
2026-04-23 21:04 -21.96479 -70.23225 29161 ft 413 kts 194°
2026-04-23 21:04 -21.99308 -70.23672 28611 ft 411 kts 194°
2026-04-23 21:05 -22.02131 -70.24120 28067 ft 409 kts 194°
2026-04-23 21:05 -22.04939 -70.24565 27529 ft 407 kts 194°
2026-04-23 21:05 -22.07739 -70.25009 26988 ft 406 kts 193°
2026-04-23 21:05 -22.10526 -70.25447 26446 ft 405 kts 193°
2026-04-23 21:06 -22.13308 -70.25882 25908 ft 404 kts 193°
2026-04-23 21:06 -22.16092 -70.26317 25363 ft 403 kts 193°
2026-04-23 21:06 -22.18859 -70.26750 24837 ft 402 kts 193°
2026-04-23 21:06 -22.21624 -70.27183 24303 ft 401 kts 192°
2026-04-23 21:07 -22.24373 -70.27612 23771 ft 399 kts 193°
2026-04-23 21:07 -22.27121 -70.28040 23239 ft 398 kts 192°
2026-04-23 21:07 -22.29870 -70.28472 22708 ft 398 kts 192°
2026-04-23 21:07 -22.32604 -70.28908 22180 ft 397 kts 192°
2026-04-23 21:08 -22.35334 -70.29343 21653 ft 396 kts 192°
2026-04-23 21:08 -22.38057 -70.29776 21124 ft 396 kts 192°
2026-04-23 21:08 -22.40784 -70.30210 20600 ft 395 kts 192°
2026-04-23 21:08 -22.43497 -70.30638 20075 ft 394 kts 191°
2026-04-23 21:09 -22.46204 -70.31064 19552 ft 393 kts 191°
2026-04-23 21:09 -22.48904 -70.31490 19030 ft 392 kts 191°
2026-04-23 21:09 -22.51601 -70.31915 18510 ft 391 kts 191°
2026-04-23 21:09 -22.54294 -70.32339 17984 ft 390 kts 191°
2026-04-23 21:10 -22.56974 -70.32766 17470 ft 390 kts 190°
2026-04-23 21:10 -22.59656 -70.33191 16945 ft 388 kts 190°
2026-04-23 21:10 -22.62327 -70.33612 16433 ft 387 kts 190°
2026-04-23 21:10 -22.64997 -70.34034 15920 ft 386 kts 190°
2026-04-23 21:11 -22.67649 -70.34453 15406 ft 384 kts 190°
2026-04-23 21:11 -22.70290 -70.34871 14896 ft 383 kts 189°
2026-04-23 21:11 -22.72916 -70.35287 14388 ft 380 kts 189°
2026-04-23 21:11 -22.75525 -70.35703 13877 ft 378 kts 189°
2026-04-23 21:12 -22.78124 -70.36118 13373 ft 375 kts 189°
2026-04-23 21:12 -22.80664 -70.36522 12891 ft 372 kts 189°
2026-04-23 21:12 -22.83213 -70.36926 12390 ft 369 kts 189°
2026-04-23 21:12 -22.85744 -70.37324 11901 ft 365 kts 189°
2026-04-23 21:13 -22.88244 -70.37719 11417 ft 361 kts 189°
2026-04-23 21:13 -22.90718 -70.38080 10941 ft 357 kts 187°
2026-04-23 21:13 -22.93173 -70.38383 10469 ft 353 kts 186°
2026-04-23 21:13 -22.95605 -70.38653 9989 ft 349 kts 186°
2026-04-23 21:14 -22.98008 -70.38913 9517 ft 345 kts 186°
2026-04-23 21:14 -23.00385 -70.39172 9074 ft 340 kts 186°
2026-04-23 21:14 -23.02727 -70.39433 8612 ft 336 kts 187°
2026-04-23 21:14 -23.05035 -70.39698 8170 ft 332 kts 187°
2026-04-23 21:15 -23.07314 -70.39966 7731 ft 327 kts 187°
2026-04-23 21:15 -23.09559 -70.40245 7314 ft 322 kts 187°
2026-04-23 21:15 -23.11775 -70.40522 6875 ft 318 kts 187°
2026-04-23 21:15 -23.13959 -70.40788 6441 ft 314 kts 187°
2026-04-23 21:16 -23.16121 -70.41048 6037 ft 309 kts 187°
2026-04-23 21:16 -23.18247 -70.41300 5638 ft 304 kts 187°
2026-04-23 21:16 -23.20335 -70.41549 5224 ft 300 kts 187°
2026-04-23 21:16 -23.22392 -70.41797 4832 ft 295 kts 187°
2026-04-23 21:17 -23.24406 -70.42045 4437 ft 285 kts 187°
2026-04-23 21:17 -23.26317 -70.42279 4076 ft 268 kts 187°
2026-04-23 21:17 -23.28123 -70.42499 3731 ft 253 kts 187°
2026-04-23 21:17 -23.29854 -70.42713 3393 ft 248 kts 187°
2026-04-23 21:18 -23.31526 -70.42916 3085 ft 235 kts 187°
2026-04-23 21:18 -23.33088 -70.43105 2990 ft 223 kts 188°
2026-04-23 21:18 -23.34589 -70.43289 2936 ft 212 kts 188°
2026-04-23 21:18 -23.36039 -70.43473 2589 ft 207 kts 188°
2026-04-23 21:19 -23.37439 -70.43658 2130 ft 198 kts 189°
2026-04-23 21:19 -23.38759 -70.43832 1703 ft 185 kts 187°
2026-04-23 21:19 -23.39998 -70.43967 1271 ft 171 kts 188°
2026-04-23 21:19 -23.41108 -70.44109 1068 ft 150 kts 188°
2026-04-23 21:20 -23.42116 -70.44227 802 ft 141 kts 188°
2026-04-23 21:20 -23.43077 -70.44339 543 ft 137 kts 187°
2026-04-23 21:20 -23.44014 -70.44455 429 ft 133 kts 186°
2026-04-23 21:20 -23.44715 -70.44540 394 ft 59 kts 187°
2026-04-23 21:21 -23.44859 -70.44555 390 ft 6 kts 185°
2026-04-23 21:21 -23.45022 -70.44577 383 ft 33 kts 186°
2026-04-23 21:21 -23.45203 -70.44579 377 ft 20 kts 144°
2026-04-23 21:21 -23.45219 -70.44465 375 ft 11 kts 91°
2026-04-23 21:22 -23.45190 -70.44408 377 ft 7 kts 17°
2026-04-23 21:22 -23.45155 -70.44401 379 ft 3 kts
2026-04-23 21:22 -23.45135 -70.44399 380 ft 3 kts
2026-04-23 21:22 -23.45110 -70.44395 381 ft 7 kts
2026-04-23 21:23 -23.45081 -70.44391 382 ft 2 kts
2026-04-23 21:23 -23.45078 -70.44390 382 ft 1 kts
2026-04-23 21:23 -23.45025 -70.44380 385 ft 12 kts 11°
2026-04-23 21:23 -23.44987 -70.44334 387 ft 7 kts 89°
2026-04-23 21:24 -23.44985 -70.44285 387 ft 5 kts 68°
2026-04-23 21:24 -23.44970 -70.44257 388 ft 6 kts 61°
2026-04-23 21:24 -23.44972 -70.44186 388 ft 4 kts 98°
2026-04-23 21:24 -23.44974 -70.44171 388 ft 0 kts 96°
2026-04-23 21:37 -23.44897 -70.44174 392 ft 0 kts 140°
2026-04-23 21:37 -23.44855 -70.44173 394 ft 0 kts 143°